DECAYED

STARLINK-5847, 57048 (Decayed)

Orbit data source: Space-Track

STARLINK-5847, 57048 was a payload satellite owned by SpaceX/Seattle (US) in LEO that was launched on Thu, 22 Jun 2023 UTC via an FALCON 9 launch vehicle from the Air Force Western Test Range (AFWTR). Payload-class satellites include a variety of spacecraft equipped with specific instruments for various scientific and technological missions. These include communications satellites like Starlink; space stations such as the ISS; scientific satellites like the Hubble; Earth observation satellites from companies like Planet Labs, Umbra, and HawkEye 360; GPS; miniature CubeSats for education and research; and military/defense satellites.

Not visible in the next 10 days
Identifier
57048, 2023-088A
Orbit
Decayed
Country
Flag of USUS
Related business
Manufacturer
SpaceX/Seattle
Mission
Decayed Commercial Communications
Bus & Motor
STARLINK, Unknown motor
Mass
305 kg wet, ~290 kg dry
Launch date (UTC)
Icon of a cake. It is the launch day of the satellite!2023-06-22 (3 years ago)
Launch vehicle
FALCON 9
Launch site
Air Force Western Test Range (AFWTR)
Object type
Payload
Rocket body
Debris
Shape & HBR
Box + 1 Pan, 10.1 m
Radar Cross Section
11.087 m², Large (>1 m²)

Expand to show TLE details & history
Last TLE update: 1 year ago

TLE from 1 year ago
0 STARLINK-5847
1 57048U 23088A   25057.76681458  .03390794  93548-5  10000-3 0  9992
2 57048  42.9811 313.2248 0007678 238.1005 181.1184 16.44822429 93346
Epoch: 2025-02-26T18:24Z
TLE epoch observation values (Epoch: 2025-02-26T18:24:12.779Z)
Latitude
35.99569°
Longitude
-68.87305°
Altitude
159.599 km
Speed
7.813 km/s
True Right ascension
00h 16m 07s
True Declination
35° 49' 02"
Sunlit
Object was in daylight at epoch
Visualization orbit readout
Latitude
Unknown
Longitude
Unknown
Altitude
Unknown
Speed
Unknown
Apparent Right ascension
Unknown
Apparent Declination
Unknown
Sunlit
N/A
Visualization observer readout
Local Sidereal Time
21:46:53
Azimuth
Unknown
Elevation
Unknown
Doppler factor
Unknown
Orbital elements
Apogee altitude
160.068 km
Perigee altitude
150.036 km
Semi-major axis
6,533.189 km
Eccentricity
0.00077
Inclination
42.9811°
RAAN
313.2248°
Arg. of periapsis
238.1005°
True anomaly
181.11668°
Mean anomaly
181.1184°
Eccentric anomaly
181.11754°
Mean motion
4.11013 °/min
Orbital period
87.59 mins
BSTAR
0.0001
Loading maneuver chart data...
Computing Atmospheric mass density...
Loading historical data...
Loading historical data...
Loading historical data...
Loading historical data...
Loading historical data...
Loading historical data...
Loading historical data...

Documentation

Showing up to 5 results
|